Monroe, MI

2:37 AM EDT on March 25, 2017 (GMT -0400)
Custer

Weather History for KTTF - May, 2013

Change the Weather History Date:

Thursday, May 16, 2013

  Actual Average Record
Temperature  
Mean Temperature 68 °F -  
Max Temperature 84 °F 69 °F 93 °F (1962)
Min Temperature 51 °F 48 °F 32 °F (1984)
Cooling Degree Days 2    
Growing Degree Days 18 (Base 50)    
Moisture  
Dew Point 44 °F    
Average Humidity 44    
Maximum Humidity 82    
Minimum Humidity 21    
Precipitation  
Precipitation 0.00 in - - ()
Sea Level Pressure  
Sea Level Pressure 29.87 in    
Wind  
Wind Speed 5 mph (NW)    
Max Wind Speed 13 mph    
Max Gust Speed 21 mph    
Visibility 10 miles    
Events      
Averages and records for this station are not official NWS values.
T = Trace of Precipitation, MM = Missing Value Source: NWS Daily Summary

Daily Weather History Graph

Daily Weather History Graph

Search for Another Location

Airport or City:

Trip Planner

Search our weather history database for the weather conditions in past years. The results will help you decide how hot, cold, wet, or windy it might be!

Date:

Astronomy

May. 16, 2013 Rise Set
Actual Time 6:12 AM EDT 8:48 PM EDT
Civil Twilight 5:40 AM EDT 9:20 PM EDT
Nautical Twilight 5:00 AM EDT 10:00 PM EDT
Astronomical Twilight 4:14 AM EDT 10:46 PM EDT
Moon 11:46 AM EDT (5/16) 1:07 AM EDT (5/16)
Length of Visible Light 15h 40m
Length of Day
14h 36m
Waxing Crescent, 35% of the Moon is Illuminated
May 16
Waxing Crescent
May 18
First Quarter
May 25
Full
May 31
Last Quarter
Jun 8
New

Hourly Weather History & Observations

Time (EDT) Temp. Dew Point Humidity Pressure Visibility Wind Dir Wind Speed Gust Speed Precip Events Conditions
12:16 AM 68.0 °F 44.6 °F 43% 29.77 in 10.0 mi NNW 6.9 mph - N/A   Clear
12:36 AM 68.0 °F 44.6 °F 43% 29.78 in 10.0 mi NW 8.1 mph - N/A   Scattered Clouds
12:56 AM 66.2 °F 44.6 °F 46% 29.78 in 10.0 mi NNW 6.9 mph - N/A   Clear
1:13 AM 66.2 °F 44.6 °F 46% 29.79 in 10.0 mi NNW 5.8 mph - N/A   Clear
1:33 AM 64.4 °F 44.6 °F 49% 29.80 in 10.0 mi NW 4.6 mph - N/A   Clear
1:53 AM 64.4 °F 44.6 °F 49% 29.80 in 10.0 mi WNW 3.5 mph - N/A   Clear
2:13 AM 60.8 °F 46.4 °F 59% 29.80 in 10.0 mi Calm Calm - N/A   Clear
2:36 AM 59.0 °F 46.4 °F 63% 29.80 in 10.0 mi Calm Calm - N/A   Clear
2:56 AM 57.2 °F 46.4 °F 67% 29.81 in 10.0 mi Calm Calm - N/A   Clear
3:16 AM 55.4 °F 46.4 °F 72% 29.81 in 10.0 mi Calm Calm - N/A   Clear
3:36 AM 55.4 °F 46.4 °F 72% 29.81 in 10.0 mi Calm Calm - N/A   Clear
3:56 AM 53.6 °F 46.4 °F 77% 29.81 in 10.0 mi Calm Calm - N/A   Clear
4:16 AM 53.6 °F 48.2 °F 82% 29.82 in 10.0 mi Calm Calm - N/A   Scattered Clouds
4:31 AM 55.4 °F 48.2 °F 77% 29.83 in 10.0 mi WSW 3.5 mph - N/A   Mostly Cloudy
4:51 AM 55.4 °F 46.4 °F 72% 29.83 in 10.0 mi Calm Calm - N/A   Scattered Clouds
5:11 AM 55.4 °F 46.4 °F 72% 29.84 in 10.0 mi Calm Calm - N/A   Clear
5:32 AM 51.8 °F 46.4 °F 82% 29.84 in 10.0 mi WNW 4.6 mph - N/A   Clear
5:52 AM 55.4 °F 44.6 °F 67% 29.85 in 10.0 mi WNW 4.6 mph - N/A   Clear
6:12 AM 53.6 °F 44.6 °F 72% 29.85 in 10.0 mi Calm Calm - N/A   Clear
6:32 AM 53.6 °F 44.6 °F 72% 29.85 in 10.0 mi Calm Calm - N/A   Clear
6:52 AM 55.4 °F 44.6 °F 67% 29.85 in 10.0 mi Calm Calm - N/A   Clear
7:12 AM 55.4 °F 46.4 °F 72% 29.85 in 10.0 mi Calm Calm - N/A   Clear
7:32 AM 57.2 °F 48.2 °F 72% 29.86 in 10.0 mi WNW 3.5 mph - N/A   Clear
7:52 AM 60.8 °F 46.4 °F 59% 29.87 in 10.0 mi WNW 4.6 mph - N/A   Clear
8:12 AM 62.6 °F 46.4 °F 55% 29.88 in 10.0 mi NW 6.9 mph - N/A   Clear
8:33 AM 66.2 °F 46.4 °F 49% 29.88 in 10.0 mi Calm Calm - N/A   Clear
8:53 AM 68.0 °F 46.4 °F 46% 29.89 in 10.0 mi West 5.8 mph - N/A   Clear
9:13 AM 68.0 °F 46.4 °F 46% 29.89 in 10.0 mi West 5.8 mph - N/A   Clear
9:33 AM 69.8 °F 46.4 °F 43% 29.89 in 10.0 mi West 6.9 mph - N/A   Clear
9:53 AM 71.6 °F 46.4 °F 41% 29.89 in 10.0 mi West 4.6 mph - N/A   Clear
10:13 AM 71.6 °F 46.4 °F 41% 29.89 in 10.0 mi West 6.9 mph - N/A   Clear
10:33 AM 73.4 °F 46.4 °F 38% 29.89 in 10.0 mi WNW 6.9 mph - N/A   Clear
10:53 AM 75.2 °F 46.4 °F 36% 29.90 in 10.0 mi West 5.8 mph - N/A   Clear
11:13 AM 75.2 °F 44.6 °F 34% 29.90 in 10.0 mi West 6.9 mph - N/A   Clear
11:33 AM 77.0 °F 44.6 °F 32% 29.90 in 10.0 mi WSW 9.2 mph - N/A   Clear
11:54 AM 78.8 °F 42.8 °F 28% 29.90 in 10.0 mi West 6.9 mph - N/A   Clear
12:14 PM 78.8 °F 42.8 °F 28% 29.89 in 10.0 mi WSW 10.4 mph - N/A   Clear
12:34 PM 78.8 °F 42.8 °F 28% 29.89 in 10.0 mi WNW 9.2 mph - N/A   Scattered Clouds
12:54 PM 80.6 °F 42.8 °F 26% 29.88 in 10.0 mi West 5.8 mph 18.4 mph N/A   Clear
1:14 PM 80.6 °F 44.6 °F 28% 29.88 in 10.0 mi West 8.1 mph - N/A   Clear
1:34 PM 80.6 °F 44.6 °F 28% 29.88 in 10.0 mi West 10.4 mph 16.1 mph N/A   Clear
1:54 PM 80.6 °F 42.8 °F 26% 29.87 in 10.0 mi WSW 9.2 mph - N/A   Scattered Clouds
2:14 PM 80.6 °F 44.6 °F 28% 29.87 in 10.0 mi West 6.9 mph 16.1 mph N/A   Scattered Clouds
2:34 PM 82.4 °F 44.6 °F 26% 29.87 in 10.0 mi West 12.7 mph 19.6 mph N/A   Scattered Clouds
3:15 PM 84.2 °F 42.8 °F 23% 29.87 in 10.0 mi West 11.5 mph 17.3 mph N/A   Scattered Clouds
3:35 PM 84.2 °F 42.8 °F 23% 29.86 in 10.0 mi WSW 8.1 mph 16.1 mph N/A   Mostly Cloudy
3:55 PM 82.4 °F 41.0 °F 23% 29.86 in 10.0 mi West 9.2 mph 17.3 mph N/A   Scattered Clouds
4:15 PM 82.4 °F 42.8 °F 25% 29.86 in 10.0 mi WNW 6.9 mph 19.6 mph N/A   Scattered Clouds
4:35 PM 82.4 °F 42.8 °F 25% 29.86 in 10.0 mi WNW 8.1 mph - N/A   Scattered Clouds
4:55 PM 80.6 °F 41.0 °F 24% 29.86 in 10.0 mi NW 9.2 mph - N/A   Scattered Clouds
5:15 PM 80.6 °F 41.0 °F 24% 29.86 in 10.0 mi NW 6.9 mph - N/A   Scattered Clouds
5:36 PM 80.6 °F 41.0 °F 24% 29.86 in 10.0 mi NW 8.1 mph - N/A   Clear
5:56 PM 80.6 °F 42.8 °F 26% 29.87 in 10.0 mi NW 5.8 mph - N/A   Clear
6:16 PM 82.4 °F 41.0 °F 23% 29.87 in 10.0 mi NW 5.8 mph - N/A   Clear
6:36 PM 82.4 °F 41.0 °F 23% 29.87 in 10.0 mi NNW 4.6 mph - N/A   Clear
6:56 PM 82.4 °F 39.2 °F 21% 29.87 in 10.0 mi NE 8.1 mph - N/A   Clear
7:16 PM 80.6 °F 44.6 °F 28% 29.88 in 10.0 mi ENE 6.9 mph - N/A   Scattered Clouds
7:31 PM 78.8 °F 44.6 °F 30% 29.88 in 10.0 mi East 5.8 mph - N/A   Scattered Clouds
7:51 PM 78.8 °F 44.6 °F 30% 29.89 in 10.0 mi East 8.1 mph - N/A   Clear
8:11 PM 75.2 °F 44.6 °F 34% 29.89 in 10.0 mi ENE 5.8 mph - N/A   Clear
8:32 PM 73.4 °F 46.4 °F 38% 29.90 in 10.0 mi East 3.5 mph - N/A   Clear
8:52 PM 71.6 °F 48.2 °F 43% 29.91 in 10.0 mi ENE 3.5 mph - N/A   Scattered Clouds
9:12 PM 69.8 °F 48.2 °F 46% 29.92 in 10.0 mi ENE 5.8 mph - N/A   Scattered Clouds
9:32 PM 69.8 °F 48.2 °F 46% 29.93 in 10.0 mi ENE 8.1 mph - N/A   Scattered Clouds
9:52 PM 69.8 °F 46.4 °F 43% 29.94 in 10.0 mi ENE 8.1 mph 17.3 mph N/A   Scattered Clouds
10:12 PM 64.4 °F 42.8 °F 45% 29.96 in 10.0 mi ENE 10.4 mph 20.7 mph N/A   Scattered Clouds
10:32 PM 62.6 °F 42.8 °F 48% 29.97 in 10.0 mi ENE 8.1 mph 16.1 mph N/A   Clear
10:52 PM 60.8 °F 41.0 °F 48% 29.98 in 10.0 mi NE 10.4 mph 17.3 mph N/A   Clear
11:12 PM 60.8 °F 39.2 °F 45% 29.98 in 10.0 mi ENE 12.7 mph 19.6 mph N/A   Clear
11:33 PM 59.0 °F 37.4 °F 45% 29.99 in 10.0 mi NE 10.4 mph 18.4 mph N/A   Clear
11:53 PM 59.0 °F 37.4 °F 45% 30.00 in 10.0 mi NE 9.2 mph 18.4 mph N/A   Clear